| time (UTC) | temp C | wind direction | speed KPH | gust KPH | rain 1hr cm | rain 24hr cm | rain mn cm | humidity % | barometer mb |
| 20260506180115 | 3 | 112 | 3.2 | 8.0 | 0.00 | 0.00 | 0.00 | 93 | 850.5 |
| 20260506175615 | 3 | 202 | 0.0 | 1.6 | 0.00 | 0.00 | 0.00 | 93 | 850.6 |
| 20260506175115 | 3 | 270 | 0.0 | 11.3 | 0.00 | 0.00 | 0.00 | 93 | 850.5 |
| 20260506174615 | 4 | 22 | 3.2 | 8.0 | 0.00 | 0.00 | 0.00 | 93 | 850.5 |
| 20260506174115 | 4 | 157 | 0.0 | 8.0 | 0.00 | 0.00 | 0.00 | 93 | 850.6 |
| 20260506173615 | 4 | 337 | 0.0 | 8.0 | 0.00 | 0.00 | 0.00 | 93 | 850.4 |
| 20260506173115 | 4 | 180 | 9.7 | 9.7 | 0.00 | 0.00 | 0.00 | 92 | 850.4 |
| 20260506172615 | 4 | 67 | 0.0 | 6.4 | 0.00 | 0.00 | 0.00 | 92 | 850.4 |
| 20260506172115 | 4 | 225 | 0.0 | 8.0 | 0.00 | 0.00 | 0.00 | 91 | 850.2 |
| 20260506171615 | 4 | 180 | 3.2 | 3.2 | 0.00 | 0.00 | 0.00 | 91 | 850.3 |
| 20260506171115 | 4 | 180 | 0.0 | 0.0 | 0.00 | 0.00 | 0.00 | 90 | 850.3 |
| 20260506170615 | 5 | 157 | 0.0 | 3.2 | 0.00 | 0.00 | 0.00 | 90 | 850.2 |
| 20260506170115 | 4 | 180 | 0.0 | 0.0 | 0.00 | 0.00 | 0.00 | 90 | 850.1 |
| 20260506165615 | 4 | 337 | 0.0 | 16.1 | 0.00 | 0.00 | 0.00 | 90 | 850.0 |
| 20260506165115 | 4 | 112 | 0.0 | 9.7 | 0.00 | 0.00 | 0.00 | 90 | 850.1 |
| 20260506164615 | 4 | 180 | 9.7 | 11.3 | 0.00 | 0.00 | 0.00 | 90 | 850.0 |
| 20260506164115 | 5 | 180 | 0.0 | 3.2 | 0.00 | 0.00 | 0.00 | 90 | 850.0 |
| 20260506163615 | 5 | 180 | 0.0 | 3.2 | 0.00 | 0.00 | 0.00 | 90 | 849.9 |
| 20260506163115 | 5 | 22 | 0.0 | 0.0 | 0.00 | 0.00 | 0.00 | 91 | 849.9 |
| 20260506162615 | 5 | 315 | 0.0 | 11.3 | 0.00 | 0.00 | 0.00 | 91 | 849.9 |
| 20260506162115 | 5 | 180 | 4.8 | 8.0 | 0.00 | 0.00 | 0.00 | 92 | 850.0 |
| 20260506161615 | 5 | 337 | 0.0 | 6.4 | 0.00 | 0.00 | 0.00 | 92 | 850.0 |
| 20260506161115 | 5 | 180 | 0.0 | 1.6 | 0.00 | 0.00 | 0.00 | 92 | 850.1 |
| 20260506160615 | 5 | 180 | 1.6 | 1.6 | 0.00 | 0.00 | 0.00 | 93 | 850.1 |
| 20260506160115 | 5 | 180 | 0.0 | 3.2 | 0.00 | 0.00 | 0.00 | 93 | 850.0 |
| 20260506155615 | 5 | 202 | 0.0 | 4.8 | 0.00 | 0.00 | 0.00 | 92 | 850.1 |
| 20260506155115 | 5 | 337 | 0.0 | 8.0 | 0.00 | 0.00 | 0.00 | 92 | 850.2 |
| 20260506154615 | 5 | 180 | 3.2 | 6.4 | 0.00 | 0.00 | 0.00 | 92 | 850.1 |
| 20260506154115 | 5 | 180 | 0.0 | 1.6 | 0.00 | 0.00 | 0.00 | 91 | 850.1 |
| 20260506153615 | 5 | 180 | 1.6 | 4.8 | 0.00 | 0.00 | 0.00 | 91 | 850.1 |
| 20260506153115 | 6 | 180 | 0.0 | 6.4 | 0.00 | 0.00 | 0.00 | 91 | 850.2 |
| 20260506152615 | 6 | 180 | 3.2 | 6.4 | 0.00 | 0.00 | 0.00 | 90 | 850.1 |
| 20260506152115 | 6 | 180 | 0.0 | 0.0 | 0.00 | 0.00 | 0.00 | 91 | 849.9 |
| 20260506151615 | 6 | 135 | 0.0 | 0.0 | 0.00 | 0.00 | 0.00 | 91 | 849.9 |
| 20260506151115 | 6 | 270 | 0.0 | 3.2 | 0.00 | 0.00 | 0.00 | 92 | 849.8 |
| 20260506150615 | 6 | 202 | 0.0 | 0.0 | 0.00 | 0.00 | 0.00 | 92 | 850.1 |
| 20260506150115 | 6 | 315 | 0.0 | 0.0 | 0.00 | 0.00 | 0.00 | 92 | 849.9 |
| 20260506145615 | 6 | 337 | 0.0 | 8.0 | 0.00 | 0.00 | 0.00 | 93 | 849.9 |
| 20260506145115 | 6 | 247 | 0.0 | 0.0 | 0.00 | 0.00 | 0.00 | 93 | 849.9 |
| 20260506144615 | 6 | 135 | 0.0 | 1.6 | 0.00 | 0.00 | 0.00 | 93 | 849.9 |
| 20260506144115 | 6 | 135 | 0.0 | 6.4 | 0.00 | 0.00 | 0.00 | 94 | 849.8 |
| 20260506143615 | 6 | 202 | 0.0 | 12.9 | 0.00 | 0.00 | 0.00 | 94 | 849.9 |
| 20260506143115 | 5 | 180 | 4.8 | 4.8 | 0.00 | 0.00 | 0.00 | 94 | 849.8 |
| 20260506142615 | 5 | 0 | 0.0 | 12.9 | 0.00 | 0.00 | 0.00 | 95 | 849.8 |
| 20260506142115 | 5 | 202 | 0.0 | 0.0 | 0.00 | 0.00 | 0.00 | 95 | 849.9 |
| 20260506141615 | 5 | 315 | 0.0 | 0.0 | 0.00 | 0.00 | 0.00 | 95 | 849.9 |
| 20260506141115 | 3 | 315 | 0.0 | 0.0 | 0.00 | 0.00 | 0.00 | 95 | 849.8 |
| 20260506140615 | 3 | 315 | 0.0 | 4.8 | 0.00 | 0.00 | 0.00 | 95 | 849.7 |
| 20260506140115 | 3 | 292 | 0.0 | 6.4 | 0.00 | 0.00 | 0.00 | 95 | 850.0 |
| 20260506135615 | 3 | 292 | 0.0 | 1.6 | 0.00 | 0.00 | 0.00 | 95 | 849.9 |
| 20260506135115 | 3 | 315 | 0.0 | 0.0 | 0.00 | 0.00 | 0.00 | 95 | 849.8 |
| 20260506134615 | 3 | 315 | 0.0 | 0.0 | 0.00 | 0.00 | 0.00 | 95 | 849.9 |
| 20260506134115 | 3 | 292 | 0.0 | 0.0 | 0.00 | 0.00 | 0.00 | 95 | 849.9 |
| 20260506133615 | 3 | 337 | 0.0 | 0.0 | 0.00 | 0.00 | 0.00 | 95 | 850.0 |
| 20260506133115 | 4 | 315 | 0.0 | 0.0 | 0.00 | 0.00 | 0.00 | 95 | 850.0 |
| 20260506132615 | 5 | 180 | 0.0 | 0.0 | 0.00 | 0.00 | 0.00 | 95 | 850.2 |
| 20260506132115 | 5 | 180 | 0.0 | 0.0 | 0.00 | 0.00 | 0.00 | 95 | 850.4 |
| 20260506131615 | 5 | 180 | 0.0 | 8.0 | 0.00 | 0.00 | 0.00 | 95 | 850.4 |
| 20260506131115 | 5 | 292 | 0.0 | 12.9 | 0.00 | 0.00 | 0.00 | 95 | 850.4 |
| 20260506130615 | 5 | 225 | 0.0 | 12.9 | 0.00 | 0.00 | 0.00 | 95 | 850.5 |
| 20260506130115 | 5 | 180 | 0.0 | 9.7 | 0.00 | 0.00 | 0.00 | 95 | 850.4 |
| 20260506125615 | 5 | 180 | 0.0 | 9.7 | 0.00 | 0.00 | 0.00 | 95 | 850.4 |
| 20260506125115 | 5 | 180 | 0.0 | 4.8 | 0.00 | 0.00 | 0.00 | 95 | 850.4 |
| 20260506124615 | 5 | 180 | 0.0 | 6.4 | 0.00 | 0.00 | 0.00 | 95 | 850.6 |
| 20260506124115 | 5 | 180 | 4.8 | 16.1 | 0.00 | 0.00 | 0.00 | 95 | 850.4 |
| 20260506123615 | 5 | 180 | 1.6 | 14.5 | 0.00 | 0.00 | 0.00 | 95 | 850.0 |
| 20260506123115 | 5 | 157 | 4.8 | 17.7 | 0.00 | 0.00 | 0.00 | 95 | 849.9 |
| 20260506122615 | 5 | 180 | 16.1 | 17.7 | 0.00 | 0.00 | 0.00 | 95 | 849.8 |
| 20260506122115 | 5 | 225 | 11.3 | 17.7 | 0.00 | 0.00 | 0.00 | 95 | 849.8 |
| 20260506121616 | 5 | 180 | 6.4 | 12.9 | 0.00 | 0.00 | 0.00 | 95 | 849.8 |
| 20260506121116 | 5 | 180 | 11.3 | 17.7 | 0.00 | 0.00 | 0.00 | 95 | 850.1 |
| 20260506120616 | 5 | 202 | 0.0 | 19.3 | 0.00 | 0.00 | 0.00 | 95 | 849.9 |
| 20260506120116 | 5 | 180 | 0.0 | 14.5 | 0.00 | 0.00 | 0.00 | 95 | 850.0 |
| 20260506115616 | 5 | 180 | 0.0 | 12.9 | 0.00 | 0.00 | 0.00 | 95 | 849.8 |
| 20260506115116 | 5 | 180 | 11.3 | 19.3 | 0.00 | 0.00 | 0.00 | 95 | 849.7 |
| 20260506114616 | 5 | 180 | 0.0 | 16.1 | 0.00 | 0.00 | 0.00 | 95 | 849.7 |
| 20260506114116 | 5 | 180 | 8.0 | 9.7 | 0.00 | 0.00 | 0.00 | 95 | 849.8 |
| 20260506113616 | 5 | 180 | 8.0 | 16.1 | 0.00 | 0.00 | 0.00 | 95 | 849.8 |
| 20260506113116 | 5 | 180 | 4.8 | 11.3 | 0.00 | 0.00 | 0.00 | 95 | 849.9 |
| 20260506112616 | 5 | 180 | 3.2 | 16.1 | 0.00 | 0.00 | 0.00 | 95 | 849.9 |
| 20260506112116 | 5 | 180 | 4.8 | 16.1 | 0.00 | 0.00 | 0.00 | 95 | 850.0 |
| 20260506111616 | 5 | 157 | 4.8 | 9.7 | 0.00 | 0.00 | 0.00 | 95 | 850.1 |
| 20260506111116 | 5 | 180 | 0.0 | 11.3 | 0.00 | 0.00 | 0.00 | 95 | 850.2 |
| 20260506110616 | 5 | 180 | 6.4 | 9.7 | 0.00 | 0.00 | 0.00 | 95 | 850.2 |
| 20260506110116 | 5 | 180 | 8.0 | 9.7 | 0.00 | 0.00 | 0.00 | 95 | 850.2 |
| 20260506105616 | 5 | 202 | 6.4 | 11.3 | 0.00 | 0.00 | 0.00 | 95 | 850.3 |
| 20260506105116 | 4 | 180 | 8.0 | 9.7 | 0.00 | 0.00 | 0.00 | 95 | 850.4 |
| 20260506104616 | 4 | 180 | 4.8 | 9.7 | 0.00 | 0.00 | 0.00 | 95 | 850.4 |
| 20260506104116 | 4 | 180 | 3.2 | 12.9 | 0.00 | 0.00 | 0.00 | 95 | 850.5 |
| 20260506103616 | 4 | 180 | 11.3 | 11.3 | 0.00 | 0.00 | 0.00 | 95 | 850.5 |
| 20260506103116 | 4 | 180 | 6.4 | 9.7 | 0.00 | 0.00 | 0.00 | 95 | 850.3 |
| 20260506102616 | 4 | 180 | 6.4 | 12.9 | 0.00 | 0.00 | 0.00 | 95 | 850.5 |
| 20260506102116 | 4 | 180 | 6.4 | 11.3 | 0.00 | 0.00 | 0.00 | 95 | 850.4 |
| 20260506101616 | 4 | 180 | 6.4 | 11.3 | 0.00 | 0.00 | 0.00 | 95 | 850.5 |
| 20260506101116 | 4 | 180 | 4.8 | 12.9 | 0.00 | 0.00 | 0.00 | 95 | 850.4 |
| 20260506100616 | 3 | 180 | 4.8 | 11.3 | 0.00 | 0.00 | 0.00 | 95 | 850.4 |
| 20260506100116 | 3 | 180 | 4.8 | 12.9 | 0.00 | 0.00 | 0.00 | 95 | 850.4 |
| 20260506095616 | 3 | 180 | 6.4 | 16.1 | 0.00 | 0.00 | 0.00 | 95 | 850.5 |
| 20260506095116 | 3 | 180 | 3.2 | 9.7 | 0.00 | 0.00 | 0.00 | 95 | 850.6 |
| 20260506094616 | 3 | 180 | 0.0 | 9.7 | 0.00 | 0.00 | 0.00 | 95 | 850.5 |
| 20260506094116 | 3 | 180 | 9.7 | 9.7 | 0.00 | 0.00 | 0.00 | 95 | 850.4 |
| 20260506093616 | 3 | 180 | 1.6 | 11.3 | 0.00 | 0.00 | 0.00 | 95 | 850.4 |
| 20260506093116 | 3 | 180 | 1.6 | 11.3 | 0.00 | 0.00 | 0.00 | 95 | 850.3 |
| 20260506092616 | 3 | 202 | 4.8 | 8.0 | 0.00 | 0.00 | 0.00 | 95 | 850.4 |
| 20260506092116 | 3 | 180 | 6.4 | 9.7 | 0.00 | 0.00 | 0.00 | 95 | 850.5 |
| 20260506091616 | 3 | 180 | 8.0 | 9.7 | 0.00 | 0.00 | 0.00 | 95 | 850.4 |
| 20260506091116 | 3 | 180 | 4.8 | 9.7 | 0.00 | 0.00 | 0.00 | 95 | 850.4 |
| 20260506090616 | 3 | 157 | 3.2 | 3.2 | 0.00 | 0.00 | 0.00 | 95 | 850.6 |
| 20260506090116 | 3 | 112 | 0.0 | 8.0 | 0.00 | 0.00 | 0.00 | 95 | 850.3 |
| 20260506085616 | 3 | 157 | 0.0 | 9.7 | 0.00 | 0.00 | 0.00 | 95 | 850.3 |
| 20260506085116 | 3 | 180 | 1.6 | 6.4 | 0.00 | 0.00 | 0.00 | 95 | 850.3 |
| 20260506084616 | 3 | 337 | 0.0 | 11.3 | 0.00 | 0.00 | 0.00 | 95 | 850.4 |
| 20260506084116 | 3 | 180 | 1.6 | 9.7 | 0.00 | 0.00 | 0.00 | 95 | 850.3 |
| 20260506083616 | 3 | 180 | 0.0 | 11.3 | 0.00 | 0.00 | 0.00 | 95 | 850.3 |
| 20260506083116 | 3 | 157 | 1.6 | 9.7 | 0.00 | 0.00 | 0.00 | 95 | 850.3 |
| 20260506082616 | 3 | 180 | 4.8 | 8.0 | 0.00 | 0.00 | 0.00 | 95 | 850.4 |
| 20260506082116 | 3 | 202 | 0.0 | 3.2 | 0.00 | 0.00 | 0.00 | 95 | 850.3 |
| 20260506081616 | 3 | 180 | 0.0 | 1.6 | 0.00 | 0.00 | 0.00 | 95 | 850.4 |
| 20260506081116 | 3 | 180 | 0.0 | 3.2 | 0.00 | 0.00 | 0.00 | 95 | 850.3 |
| 20260506080616 | 3 | 0 | 0.0 | 8.0 | 0.00 | 0.00 | 0.00 | 95 | 850.3 |
| 20260506080116 | 3 | 202 | 3.2 | 9.7 | 0.00 | 0.00 | 0.00 | 95 | 850.2 |
| 20260506073116 | 3 | 180 | 9.7 | 9.7 | 0.00 | 0.00 | 0.00 | 95 | 850.5 |
| 20260506072616 | 3 | 180 | 4.8 | 8.0 | 0.00 | 0.00 | 0.00 | 95 | 850.5 |
| 20260506072116 | 2 | 180 | 6.4 | 9.7 | 0.00 | 0.00 | 0.00 | 95 | 850.5 |
| 20260506071616 | 2 | 180 | 3.2 | 8.0 | 0.00 | 0.00 | 0.00 | 95 | 850.5 |
| 20260506071116 | 2 | 180 | 4.8 | 11.3 | 0.00 | 0.00 | 0.00 | 95 | 850.6 |
| 20260506070616 | 2 | 180 | 6.4 | 6.4 | 0.00 | 0.00 | 0.00 | 95 | 850.6 |
| 20260506070116 | 2 | 180 | 0.0 | 8.0 | 0.00 | 0.00 | 0.00 | 94 | 850.5 |
| 20260506062116 | 2 | 202 | 0.0 | 0.0 | 0.00 | 0.00 | 0.00 | 94 | 851.1 |
| 20260506061616 | 2 | 180 | 0.0 | 0.0 | 0.00 | 0.00 | 0.00 | 94 | 851.2 |
| 20260506061116 | 2 | 180 | 0.0 | 0.0 | 0.00 | 0.00 | 0.00 | 95 | 851.0 |
| 20260506060616 | 2 | 180 | 0.0 | 0.0 | 0.00 | 0.00 | 0.00 | 95 | 851.2 |
| 20260506060116 | 2 | 180 | 0.0 | 0.0 | 0.00 | 0.00 | 0.00 | 95 | 851.1 |
| 20260506051116 | 3 | 157 | 1.6 | 9.7 | 0.00 | 0.00 | 0.00 | 95 | 850.7 |
| 20260506050616 | 3 | 180 | 8.0 | 12.9 | 0.00 | 0.00 | 0.00 | 95 | 850.7 |
| 20260506050116 | 3 | 180 | 0.0 | 9.7 | 0.00 | 0.00 | 0.00 | 94 | 850.7 |
| 20260506045116 | 3 | 202 | 0.0 | 6.4 | 0.00 | 0.00 | 0.00 | 94 | 851.0 |
| 20260506044616 | 3 | 180 | 0.0 | 6.4 | 0.00 | 0.00 | 0.00 | 94 | 851.1 |
| 20260506044116 | 3 | 180 | 4.8 | 6.4 | 0.00 | 0.00 | 0.00 | 94 | 851.0 |
| 20260506043616 | 3 | 180 | 6.4 | 6.4 | 0.00 | 0.00 | 0.00 | 94 | 851.1 |
| 20260506043116 | 3 | 112 | 0.0 | 6.4 | 0.00 | 0.00 | 0.00 | 94 | 851.0 |
| 20260506042616 | 3 | 180 | 3.2 | 6.4 | 0.00 | 0.00 | 0.00 | 95 | 851.0 |
| 20260506042116 | 2 | 67 | 0.0 | 4.8 | 0.00 | 0.00 | 0.00 | 95 | 850.8 |
| 20260506041616 | 2 | 157 | 3.2 | 6.4 | 0.00 | 0.00 | 0.00 | 95 | 850.7 |
| 20260506041116 | 2 | 157 | 1.6 | 6.4 | 0.00 | 0.00 | 0.00 | 95 | 850.9 |
| 20260506040616 | 2 | 337 | 0.0 | 9.7 | 0.00 | 0.00 | 0.00 | 95 | 850.9 |
| 20260506040116 | 2 | 202 | 0.0 | 8.0 | 0.00 | 0.00 | 0.00 | 95 | 850.9 |
| 20260506035616 | 2 | 180 | 0.0 | 6.4 | 0.00 | 0.00 | 0.00 | 95 | 850.8 |
| 20260506035116 | 2 | 135 | 0.0 | 9.7 | 0.00 | 0.00 | 0.00 | 95 | 851.2 |
| 20260506034616 | 2 | 180 | 6.4 | 6.4 | 0.00 | 0.00 | 0.00 | 95 | 851.1 |
| 20260506034116 | 2 | 225 | 3.2 | 6.4 | 0.00 | 0.00 | 0.00 | 95 | 851.2 |
| 20260506033618 | 2 | 315 | 3.2 | 12.9 | 0.00 | 0.00 | 0.00 | 95 | 851.1 |
| 20260506033116 | 2 | 315 | 0.0 | 11.3 | 0.00 | 0.00 | 0.00 | 95 | 851.4 |
| 20260506032616 | 2 | 90 | 0.0 | 9.7 | 0.00 | 0.00 | 0.00 | 95 | 851.4 |
| 20260506032116 | 2 | 180 | 0.0 | 3.2 | 0.00 | 0.00 | 0.00 | 94 | 851.7 |
| 20260506031617 | 2 | 225 | 0.0 | 9.7 | 0.00 | 0.00 | 0.00 | 94 | 851.5 |
| 20260506031116 | 2 | 157 | 0.0 | 6.4 | 0.00 | 0.00 | 0.00 | 94 | 851.6 |
| 20260506030616 | 2 | 202 | 0.0 | 3.2 | 0.00 | 0.00 | 0.00 | 94 | 851.5 |
| 20260506030116 | 2 | 337 | 0.0 | 0.0 | 0.00 | 0.00 | 0.00 | 94 | 851.6 |
| 20260506025616 | 2 | 337 | 0.0 | 0.0 | 0.00 | 0.00 | 0.00 | 94 | 851.8 |
| 20260506025116 | 2 | 202 | 0.0 | 1.6 | 0.00 | 0.00 | 0.00 | 94 | 851.7 |
| 20260506024616 | 2 | 0 | 0.0 | 8.0 | 0.00 | 0.00 | 0.00 | 94 | 851.7 |
| 20260506024116 | 2 | 270 | 0.0 | 8.0 | 0.00 | 0.00 | 0.00 | 94 | 851.8 |
| 20260506023617 | 2 | 180 | 0.0 | 3.2 | 0.00 | 0.00 | 0.00 | 94 | 851.7 |
| 20260506023117 | 3 | 0 | 0.0 | 4.8 | 0.00 | 0.00 | 0.00 | 94 | 851.7 |
| 20260506022617 | 2 | 180 | 1.6 | 4.8 | 0.00 | 0.00 | 0.00 | 94 | 851.7 |
| 20260506022117 | 2 | 337 | 0.0 | 6.4 | 0.00 | 0.00 | 0.00 | 94 | 851.9 |
| 20260506021617 | 2 | 180 | 0.0 | 3.2 | 0.00 | 0.00 | 0.00 | 94 | 851.9 |
| 20260506021117 | 2 | 180 | 0.0 | 4.8 | 0.00 | 0.00 | 0.00 | 94 | 851.7 |
| 20260506020617 | 2 | 180 | 0.0 | 4.8 | 0.00 | 0.00 | 0.00 | 94 | 851.8 |
| 20260506020117 | 2 | 180 | 0.0 | 1.6 | 0.00 | 0.00 | 0.00 | 93 | 851.9 |
| 20260506015617 | 2 | 180 | 0.0 | 0.0 | 0.00 | 0.00 | 0.00 | 93 | 851.9 |
| 20260506015117 | 3 | 202 | 0.0 | 0.0 | 0.00 | 0.00 | 0.00 | 93 | 851.8 |
| 20260506014617 | 3 | 292 | 0.0 | 0.0 | 0.00 | 0.00 | 0.00 | 93 | 851.9 |
| 20260506014117 | 3 | 337 | 0.0 | 0.0 | 0.00 | 0.00 | 0.00 | 94 | 852.0 |
| 20260506013617 | 2 | 247 | 0.0 | 0.0 | 0.00 | 0.00 | 0.00 | 94 | 851.9 |
| 20260506013117 | 2 | 315 | 0.0 | 0.0 | 0.00 | 0.00 | 0.00 | 94 | 851.9 |
| 20260506012617 | 2 | 180 | 0.0 | 0.0 | 0.00 | 0.00 | 0.00 | 94 | 852.2 |
| 20260506012117 | 2 | 337 | 0.0 | 0.0 | 0.00 | 0.00 | 0.00 | 94 | 852.3 |
| 20260506011617 | 2 | 180 | 0.0 | 0.0 | 0.00 | 0.00 | 0.00 | 94 | 852.2 |
| 20260506011117 | 2 | 202 | 0.0 | 0.0 | 0.00 | 0.00 | 0.00 | 94 | 852.3 |
| 20260506010617 | 2 | 157 | 0.0 | 0.0 | 0.00 | 0.00 | 0.00 | 94 | 852.6 |
| 20260506010117 | 2 | 0 | 0.0 | 0.0 | 0.00 | 0.00 | 0.00 | 94 | 852.4 |
| 20260506005617 | 2 | 0 | 0.0 | 0.0 | 0.00 | 0.00 | 0.00 | 94 | 852.3 |
| 20260506005117 | 2 | 45 | 0.0 | 0.0 | 0.00 | 0.00 | 0.00 | 94 | 852.2 |
| 20260506004617 | 2 | 45 | 0.0 | 0.0 | 0.00 | 0.00 | 0.00 | 94 | 852.3 |
| 20260506004117 | 2 | 45 | 0.0 | 0.0 | 0.00 | 0.00 | 0.00 | 94 | 852.4 |
| 20260506003617 | 2 | 45 | 0.0 | 0.0 | 0.00 | 0.00 | 0.00 | 94 | 852.5 |
| 20260506003117 | 2 | 45 | 0.0 | 0.0 | 0.00 | 0.00 | 0.00 | 94 | 852.5 |
| 20260506002617 | 2 | 67 | 0.0 | 0.0 | 0.00 | 0.00 | 0.00 | 94 | 852.5 |
| 20260506002117 | 2 | 67 | 0.0 | 0.0 | 0.00 | 0.00 | 0.00 | 94 | 852.6 |
| 20260506001617 | 2 | 67 | 0.0 | 0.0 | 0.00 | 0.00 | 0.00 | 94 | 852.5 |
| 20260506001117 | 2 | 67 | 0.0 | 0.0 | 0.00 | 0.00 | 0.00 | 94 | 852.6 |
| 20260506000617 | 2 | 135 | 0.0 | 0.0 | 0.00 | 0.00 | 0.00 | 94 | 852.5 |
| 20260506000117 | 2 | 112 | 0.0 | 0.0 | 0.00 | 0.00 | 0.00 | 94 | 852.4 |
| 20260505235617 | 2 | 0 | 0.0 | 0.0 | 0.00 | 0.00 | 0.00 | 94 | 852.5 |
| 20260505235117 | 3 | 247 | 0.0 | 0.0 | 0.00 | 0.00 | 0.00 | 94 | 852.6 |
| 20260505234617 | 3 | 0 | 0.0 | 0.0 | 0.00 | 0.00 | 0.00 | 94 | 852.6 |
| 20260505234117 | 3 | 292 | 0.0 | 0.0 | 0.00 | 0.00 | 0.00 | 95 | 852.7 |
| 20260505233617 | 3 | 292 | 0.0 | 0.0 | 0.00 | 0.00 | 0.00 | 94 | 852.6 |
| 20260505233117 | 3 | 315 | 0.0 | 0.0 | 0.00 | 0.00 | 0.00 | 95 | 852.8 |
| 20260505232617 | 3 | 315 | 0.0 | 0.0 | 0.00 | 0.00 | 0.00 | 95 | 852.9 |
| 20260505232117 | 3 | 292 | 0.0 | 0.0 | 0.00 | 0.00 | 0.00 | 94 | 852.8 |
| 20260505231617 | 3 | 270 | 0.0 | 0.0 | 0.00 | 0.00 | 0.00 | 95 | 852.9 |
| 20260505231117 | 3 | 337 | 0.0 | 0.0 | 0.00 | 0.00 | 0.00 | 95 | 852.9 |
| 20260505230617 | 3 | 270 | 0.0 | 0.0 | 0.00 | 0.00 | 0.00 | 95 | 852.9 |
| 20260505230117 | 3 | 315 | 0.0 | 4.8 | 0.00 | 0.00 | 0.00 | 95 | 852.9 |
| 20260505225617 | 3 | 135 | 0.0 | 3.2 | 0.00 | 0.00 | 0.00 | 94 | 852.8 |
| 20260505225117 | 3 | 180 | 0.0 | 0.0 | 0.00 | 0.00 | 0.00 | 94 | 853.1 |
| 20260505224617 | 3 | 337 | 0.0 | 0.0 | 0.00 | 0.00 | 0.00 | 94 | 853.1 |
| 20260505224117 | 3 | 180 | 0.0 | 0.0 | 0.00 | 0.00 | 0.00 | 94 | 853.1 |
| 20260505223617 | 3 | 157 | 0.0 | 0.0 | 0.00 | 0.00 | 0.00 | 94 | 853.2 |
| 20260505223117 | 3 | 225 | 0.0 | 0.0 | 0.00 | 0.00 | 0.00 | 95 | 853.2 |
| 20260505222617 | 3 | 180 | 0.0 | 0.0 | 0.00 | 0.00 | 0.00 | 95 | 853.2 |
| 20260505222117 | 3 | 180 | 0.0 | 0.0 | 0.00 | 0.00 | 0.00 | 95 | 853.2 |
| 20260505221617 | 3 | 202 | 0.0 | 0.0 | 0.00 | 0.00 | 0.00 | 95 | 853.3 |
| 20260505221117 | 3 | 180 | 0.0 | 0.0 | 0.00 | 0.00 | 0.00 | 95 | 853.3 |
| 20260505220617 | 3 | 180 | 0.0 | 0.0 | 0.00 | 0.00 | 0.00 | 95 | 853.3 |
| 20260505220117 | 3 | 180 | 0.0 | 0.0 | 0.00 | 0.00 | 0.00 | 95 | 853.4 |
| 20260505215617 | 3 | 180 | 0.0 | 0.0 | 0.00 | 0.00 | 0.00 | 95 | 853.4 |
| 20260505215117 | 3 | 180 | 0.0 | 0.0 | 0.00 | 0.00 | 0.00 | 95 | 853.4 |
| 20260505214617 | 3 | 180 | 0.0 | 0.0 | 0.00 | 0.00 | 0.00 | 95 | 853.4 |
| 20260505214117 | 3 | 315 | 0.0 | 0.0 | 0.00 | 0.00 | 0.00 | 95 | 853.4 |
| 20260505213617 | 3 | 315 | 0.0 | 0.0 | 0.00 | 0.00 | 0.00 | 95 | 853.5 |
| 20260505213119 | 2 | 270 | 0.0 | 0.0 | 0.00 | 0.00 | 0.00 | 95 | 853.6 |
| 20260505212617 | 2 | 337 | 0.0 | 0.0 | 0.00 | 0.00 | 0.00 | 95 | 853.6 |
| 20260505212117 | 2 | 337 | 0.0 | 0.0 | 0.00 | 0.00 | 0.00 | 95 | 853.6 |
| 20260505211617 | 2 | 337 | 0.0 | 0.0 | 0.00 | 0.00 | 0.00 | 95 | 853.5 |
| 20260505211117 | 2 | 247 | 0.0 | 0.0 | 0.00 | 0.00 | 0.00 | 95 | 853.7 |
| 20260505210617 | 2 | 292 | 0.0 | 0.0 | 0.00 | 0.00 | 0.00 | 95 | 853.9 |
| 20260505210117 | 2 | 292 | 0.0 | 3.2 | 0.00 | 0.00 | 0.00 | 95 | 853.9 |
| 20260505205617 | 2 | 315 | 3.2 | 6.4 | 0.00 | 0.00 | 0.00 | 95 | 853.9 |
| 20260505205117 | 3 | 315 | 0.0 | 101.4 | 0.00 | 0.00 | 0.00 | 95 | 853.7 |
| 20260505204617 | 3 | 337 | 0.0 | 0.0 | 0.00 | 0.00 | 0.00 | 95 | 853.6 |
| 20260505204117 | 3 | 315 | 0.0 | 177.0 | 0.00 | 0.00 | 0.00 | 95 | 853.7 |
| 20260505203617 | 3 | 315 | 0.0 | 0.0 | 0.00 | 0.00 | 0.00 | 95 | 854.0 |
| 20260505203117 | 3 | 292 | 0.0 | 0.0 | 0.00 | 0.00 | 0.00 | 95 | 854.1 |
| 20260505202458 | 3 | 270 | 4.8 | 6.4 | 0.00 | 0.00 | 0.00 | 95 | 853.9 |
| 20260505201958 | 3 | 315 | 0.0 | 0.0 | 0.00 | 0.00 | 0.00 | 95 | 853.9 |
| 20260505201458 | 3 | 337 | 0.0 | 45.1 | 0.00 | 0.00 | 0.00 | 95 | 854.1 |
| 20260505200958 | 3 | 315 | 0.0 | 6.4 | 0.00 | 0.00 | 0.00 | 95 | 855.0 |
| 20260505200458 | 3 | 315 | 0.0 | 6.4 | 0.00 | 0.00 | 0.00 | 95 | 854.0 |
| 20260505195958 | 3 | 315 | 0.0 | 0.0 | 0.00 | 0.00 | 0.00 | 95 | 854.0 |
| 20260505195458 | 3 | 292 | 0.0 | 14.5 | 0.00 | 0.00 | 0.00 | 95 | 853.9 |
| 20260505194958 | 3 | 247 | 0.0 | 6.4 | 0.00 | 0.00 | 0.00 | 95 | 853.8 |
| 20260505194458 | 3 | 337 | 0.0 | 56.3 | 0.00 | 0.00 | 0.00 | 95 | 853.9 |
| 20260505193958 | 3 | 315 | 0.0 | 0.0 | 0.00 | 0.00 | 0.00 | 95 | 853.8 |
| 20260505193458 | 3 | 315 | 0.0 | 11.3 | 0.00 | 0.00 | 0.00 | 95 | 853.8 |
| 20260505192958 | 3 | 112 | 0.0 | 0.0 | 0.00 | 0.00 | 0.00 | 95 | 853.8 |
| 20260505192458 | 3 | 22 | 0.0 | 0.0 | 0.00 | 0.00 | 0.00 | 95 | 853.7 |
| 20260505191958 | 3 | 202 | 0.0 | 1.6 | 0.00 | 0.00 | 0.00 | 95 | 853.8 |
| 20260505191458 | 3 | 247 | 1.6 | 1.6 | 0.00 | 0.00 | 0.00 | 95 | 853.9 |
| 20260505190958 | 3 | 22 | 0.0 | 0.0 | 0.00 | 0.00 | 0.00 | 95 | 853.8 |
| 20260505190458 | 3 | 337 | 0.0 | 1.6 | 0.00 | 0.00 | 0.00 | 95 | 853.8 |
| 20260505185958 | 3 | 270 | 0.0 | 6.4 | 0.00 | 0.00 | 0.00 | 95 | 853.8 |
| 20260505185458 | 3 | 337 | 6.4 | 6.4 | 0.00 | 0.00 | 0.00 | 95 | 853.8 |
| 20260505184958 | 3 | 180 | 0.0 | 6.4 | 0.00 | 0.00 | 0.00 | 95 | 853.8 |
| 20260505184458 | 3 | 180 | 0.0 | 0.0 | 0.00 | 0.00 | 0.00 | 95 | 853.9 |
| 20260505183958 | 3 | 180 | 3.2 | 11.3 | 0.00 | 0.00 | 0.00 | 95 | 853.6 |
| 20260505183458 | 3 | 202 | 1.6 | 32.2 | 0.00 | 0.00 | 0.00 | 95 | 853.7 |
| 20260505182958 | 3 | 180 | 0.0 | 4.8 | 0.00 | 0.00 | 0.00 | 95 | 853.8 |
| 20260505182458 | 3 | 157 | 0.0 | 6.4 | 0.00 | 0.00 | 0.00 | 95 | 853.5 |
| 20260505181958 | 3 | 180 | 0.0 | 24.1 | 0.00 | 0.00 | 0.00 | 95 | 853.6 |
| 20260505181458 | 3 | 180 | 6.4 | 9.7 | 0.00 | 0.00 | 0.00 | 95 | 853.8 |
| 20260505180958 | 3 | 180 | 0.0 | 0.0 | 0.00 | 0.00 | 0.00 | 95 | 853.4 |
| 20260505180458 | 3 | 180 | 0.0 | 3.2 | 0.00 | 0.00 | 0.00 | 95 | 853.8 |